Time,TemperatureF,DewpointF,PressureIn,WindDirection,WindDirectionDegrees,WindSpeedMPH,WindSpeedGustMPH,Humidity,HourlyPrecipIn,Conditions,Clouds,dailyrainin,SoftwareType,DateUTC
2013-10-03 00:13:00,55.0,54.0,29.97,NNW,329,0.0,3.0,96,0.10,,,0.28,,2013-10-03 05:13:00,
2013-10-03 00:23:00,54.0,53.0,29.96,NE,54,0.0,2.0,96,0.13,,,0.33,,2013-10-03 05:23:00,
2013-10-03 00:43:00,54.0,53.0,29.96,ENE,64,0.0,3.0,96,0.13,,,0.35,,2013-10-03 05:43:00,
2013-10-03 00:52:00,54.0,53.0,29.95,East,92,0.0,3.0,96,0.12,,,0.37,,2013-10-03 05:52:00,
2013-10-03 01:12:00,54.0,53.0,29.96,NE,54,0.0,3.0,96,0.08,,,0.37,,2013-10-03 06:12:00,
2013-10-03 01:22:00,54.0,53.0,29.96,NNE,33,0.0,3.0,96,0.04,,,0.37,,2013-10-03 06:22:00,
2013-10-03 01:42:00,54.0,53.0,29.95,ENE,64,0.0,5.0,96,0.03,,,0.38,,2013-10-03 06:42:00,
2013-10-03 01:52:00,54.0,53.0,29.95,NE,55,0.0,2.0,96,0.01,,,0.38,,2013-10-03 06:52:00,
2013-10-03 02:11:00,54.0,53.0,29.95,NE,46,1.0,3.0,96,0.01,,,0.38,,2013-10-03 07:11:00,
2013-10-03 02:22:00,54.0,53.0,29.95,NE,49,1.0,3.0,96,0.02,,,0.39,,2013-10-03 07:22:00,
2013-10-03 02:52:00,54.0,53.0,29.94,NE,38,1.0,4.0,96,0.02,,,0.40,,2013-10-03 07:52:00,
2013-10-03 03:12:00,53.0,52.0,29.94,ENE,66,0.0,4.0,96,0.03,,,0.41,,2013-10-03 08:12:00,
2013-10-03 03:22:00,53.0,52.0,29.93,ENE,74,0.0,5.0,96,0.05,,,0.44,,2013-10-03 08:22:00,
2013-10-03 03:42:00,53.0,52.0,29.92,ESE,109,1.0,7.0,96,0.07,,,0.46,,2013-10-03 08:42:00,
2013-10-03 03:52:00,53.0,52.0,29.92,ENE,72,1.0,5.0,96,0.06,,,0.46,,2013-10-03 08:52:00,
2013-10-03 04:12:00,52.0,51.0,29.92,NE,50,1.0,4.0,96,0.06,,,0.47,,2013-10-03 09:12:00,
2013-10-03 04:22:00,52.0,51.0,29.92,NE,42,0.0,5.0,96,0.03,,,0.47,,2013-10-03 09:22:00,
2013-10-03 04:53:00,53.0,52.0,29.92,NE,43,0.0,3.0,96,0.02,,,0.49,,2013-10-03 09:53:00,
2013-10-03 05:13:00,52.0,51.0,29.92,NNE,32,0.0,4.0,96,0.02,,,0.49,,2013-10-03 10:13:00,
2013-10-03 05:23:00,53.0,52.0,29.92,North,355,0.0,3.0,97,0.03,,,0.50,,2013-10-03 10:23:00,
2013-10-03 05:43:00,53.0,52.0,29.92,NE,56,0.0,4.0,97,0.02,,,0.50,,2013-10-03 10:43:00,
2013-10-03 05:52:00,53.0,52.0,29.92,East,82,0.0,4.0,97,0.02,,,0.51,,2013-10-03 10:52:00,
2013-10-03 06:12:00,53.0,52.0,29.92,East,82,0.0,2.0,97,0.02,,,0.51,,2013-10-03 11:12:00,
2013-10-03 06:23:00,53.0,52.0,29.92,NE,51,0.0,4.0,97,0.01,,,0.51,,2013-10-03 11:23:00,
2013-10-03 06:52:00,53.0,52.0,29.93,SE,144,0.0,2.0,97,0.00,,,0.51,,2013-10-03 11:52:00,
2013-10-03 07:12:00,53.0,52.0,29.94,NE,43,0.0,1.0,97,0.00,,,0.51,,2013-10-03 12:12:00,
2013-10-03 07:22:00,53.0,52.0,29.94,NE,43,0.0,0.0,97,0.00,,,0.51,,2013-10-03 12:22:00,
2013-10-03 07:42:00,53.0,52.0,29.94,NE,43,0.0,0.0,97,0.00,,,0.51,,2013-10-03 12:42:00,
2013-10-03 07:52:00,53.0,52.0,29.95,NE,43,0.0,0.0,97,0.01,,,0.52,,2013-10-03 12:52:00,
2013-10-03 08:11:00,53.0,52.0,29.94,NE,43,0.0,1.0,97,0.01,,,0.52,,2013-10-03 13:11:00,
2013-10-03 08:22:00,53.0,52.0,29.94,NE,43,0.0,1.0,97,0.01,,,0.52,,2013-10-03 13:22:00,
2013-10-03 08:42:00,54.0,53.0,29.94,NE,43,0.0,2.0,98,0.01,,,0.52,,2013-10-03 13:42:00,
2013-10-03 08:52:00,54.0,53.0,29.94,SSE,160,0.0,3.0,98,0.00,,,0.52,,2013-10-03 13:52:00,
2013-10-03 09:11:00,54.0,53.0,29.95,East,97,0.0,2.0,97,0.00,,,0.52,,2013-10-03 14:11:00,
2013-10-03 09:22:00,54.0,53.0,29.95,South,179,0.0,3.0,97,0.00,,,0.52,,2013-10-03 14:22:00,
2013-10-03 09:42:00,54.0,53.0,29.95,ENE,61,0.0,2.0,97,0.00,,,0.52,,2013-10-03 14:42:00,
2013-10-03 09:52:00,54.0,53.0,29.94,NE,55,0.0,2.0,97,0.00,,,0.52,,2013-10-03 14:52:00,
2013-10-03 10:11:00,55.0,54.0,29.94,East,92,0.0,3.0,97,0.00,,,0.52,,2013-10-03 15:11:00,
2013-10-03 10:22:00,55.0,54.0,29.93,East,92,0.0,2.0,96,0.00,,,0.52,,2013-10-03 15:22:00,
2013-10-03 10:43:00,56.0,55.0,29.93,NE,50,0.0,2.0,95,0.00,,,0.52,,2013-10-03 15:43:00,
2013-10-03 10:54:00,56.0,54.0,29.93,NE,46,0.0,3.0,94,0.00,,,0.52,,2013-10-03 15:54:00,
2013-10-03 11:12:00,56.0,54.0,29.93,NE,38,0.0,2.0,94,0.00,,,0.52,,2013-10-03 16:12:00,
2013-10-03 11:23:00,57.0,55.0,29.93,NE,51,1.0,3.0,93,0.00,,,0.52,,2013-10-03 16:23:00,
2013-10-03 11:42:00,57.0,55.0,29.94,NE,42,1.0,3.0,92,0.00,,,0.52,,2013-10-03 16:42:00,
2013-10-03 11:53:00,57.0,54.0,29.93,NE,40,1.0,4.0,90,0.00,,,0.52,,2013-10-03 16:53:00,
2013-10-03 12:12:00,57.0,54.0,29.94,North,355,2.0,4.0,89,0.00,,,0.52,,2013-10-03 17:12:00,
2013-10-03 12:22:00,57.0,54.0,29.94,NE,35,1.0,4.0,91,0.00,,,0.52,,2013-10-03 17:22:00,
2013-10-03 12:33:00,57.0,54.0,29.94,NE,35,1.0,4.0,91,0.00,,,0.52,,2013-10-03 17:33:00,
2013-10-03 12:42:00,57.0,54.0,29.94,NE,35,1.0,4.0,91,0.00,,,0.52,,2013-10-03 17:42:00,
2013-10-03 12:52:00,57.0,53.0,29.94,NE,34,1.0,3.0,88,0.00,,,0.52,,2013-10-03 17:52:00,
2013-10-03 13:12:00,57.0,53.0,29.94,NE,42,0.0,2.0,88,0.00,,,0.52,,2013-10-03 18:12:00,
2013-10-03 13:22:00,58.0,54.0,29.94,NE,56,0.0,4.0,88,0.00,,,0.52,,2013-10-03 18:22:00,
2013-10-03 13:42:00,58.0,53.0,29.94,ENE,72,1.0,6.0,83,0.00,,,0.52,,2013-10-03 18:42:00,
2013-10-03 13:52:00,58.0,53.0,29.94,NNE,13,1.0,4.0,84,0.00,,,0.52,,2013-10-03 18:52:00,
2013-10-03 14:11:00,59.0,54.0,29.93,NNE,22,1.0,3.0,84,0.00,,,0.52,,2013-10-03 19:11:00,
2013-10-03 14:22:00,58.0,54.0,29.93,ENE,70,1.0,4.0,85,0.00,,,0.52,,2013-10-03 19:22:00,
2013-10-03 14:42:00,58.0,54.0,29.93,ENE,57,2.0,6.0,85,0.00,,,0.52,,2013-10-03 19:42:00,
2013-10-03 14:52:00,58.0,53.0,29.92,NNE,20,1.0,5.0,83,0.00,,,0.52,,2013-10-03 19:52:00,
2013-10-03 15:11:00,58.0,53.0,29.91,NNE,19,2.0,5.0,84,0.00,,,0.52,,2013-10-03 20:11:00,
2013-10-03 15:21:00,58.0,54.0,29.92,North,355,1.0,4.0,85,0.00,,,0.52,,2013-10-03 20:21:00,
2013-10-03 15:42:00,58.0,54.0,29.92,NNE,32,1.0,4.0,86,0.00,,,0.52,,2013-10-03 20:42:00,
2013-10-03 15:52:00,58.0,54.0,29.92,NNE,17,1.0,3.0,87,0.00,,,0.52,,2013-10-03 20:52:00,
2013-10-03 16:12:00,58.0,54.0,29.93,NNE,32,1.0,6.0,88,0.00,,,0.52,,2013-10-03 21:12:00,
2013-10-03 16:21:00,57.0,53.0,29.93,NE,47,0.0,5.0,87,0.00,,,0.52,,2013-10-03 21:21:00,
2013-10-03 16:43:00,57.0,53.0,29.92,NE,40,1.0,4.0,88,0.00,,,0.52,,2013-10-03 21:43:00,
2013-10-03 16:54:00,57.0,54.0,29.93,NNE,22,2.0,6.0,89,0.00,,,0.52,,2013-10-03 21:54:00,
2013-10-03 17:13:00,57.0,54.0,29.96,NE,49,0.0,5.0,90,0.00,,,0.52,,2013-10-03 22:13:00,
2013-10-03 17:23:00,56.0,53.0,29.96,NE,49,0.0,1.0,91,0.01,,,0.53,,2013-10-03 22:23:00,
2013-10-03 17:43:00,56.0,54.0,29.95,NE,49,0.0,2.0,93,0.04,,,0.56,,2013-10-03 22:43:00,
2013-10-03 17:54:00,56.0,54.0,29.94,ENE,65,0.0,5.0,94,0.08,,,0.60,,2013-10-03 22:54:00,
2013-10-03 18:12:00,55.0,54.0,29.95,NE,44,0.0,3.0,95,0.10,,,0.62,,2013-10-03 23:12:00,
2013-10-03 18:22:00,55.0,54.0,29.95,North,350,0.0,2.0,95,0.12,,,0.65,,2013-10-03 23:22:00,
2013-10-03 18:43:00,55.0,54.0,29.96,NE,42,0.0,3.0,96,0.10,,,0.66,,2013-10-03 23:43:00,
2013-10-03 18:52:00,55.0,54.0,29.96,ENE,74,0.0,5.0,96,0.07,,,0.67,,2013-10-03 23:52:00,
2013-10-03 19:12:00,55.0,54.0,29.96,NNE,26,1.0,4.0,96,0.06,,,0.68,,2013-10-04 00:12:00,
2013-10-03 19:22:00,55.0,54.0,29.96,WNW,292,2.0,8.0,96,0.04,,,0.69,,2013-10-04 00:22:00,
2013-10-03 19:42:00,55.0,54.0,29.97,NNE,19,1.0,5.0,96,0.04,,,0.70,,2013-10-04 00:42:00,
2013-10-03 19:52:00,55.0,54.0,29.96,NE,35,0.0,4.0,96,0.04,,,0.71,,2013-10-04 00:52:00,
2013-10-03 20:12:00,55.0,54.0,29.96,NE,39,1.0,5.0,96,0.04,,,0.72,,2013-10-04 01:12:00,
2013-10-03 20:22:00,55.0,54.0,29.96,ENE,62,2.0,5.0,96,0.03,,,0.72,,2013-10-04 01:22:00,
2013-10-03 20:42:00,55.0,54.0,29.96,NE,45,2.0,6.0,96,0.02,,,0.72,,2013-10-04 01:42:00,
2013-10-03 20:52:00,54.0,53.0,29.96,NNW,344,2.0,7.0,96,0.02,,,0.73,,2013-10-04 01:52:00,
2013-10-03 21:12:00,54.0,53.0,29.96,NE,51,1.0,7.0,96,0.01,,,0.73,,2013-10-04 02:12:00,
2013-10-03 21:22:00,54.0,53.0,29.97,NNE,31,1.0,5.0,96,0.01,,,0.64,,2013-10-04 02:22:00,
2013-10-03 21:43:00,54.0,53.0,29.97,ENE,71,0.0,3.0,96,0.01,,,0.64,,2013-10-04 02:43:00,
2013-10-03 21:52:00,54.0,53.0,29.97,ENE,74,0.0,4.0,96,0.00,,,0.64,,2013-10-04 02:52:00,
2013-10-03 22:12:00,54.0,53.0,29.97,East,80,1.0,6.0,96,0.00,,,0.64,,2013-10-04 03:12:00,
2013-10-03 22:22:00,54.0,53.0,29.97,ENE,70,0.0,4.0,96,0.00,,,0.61,,2013-10-04 03:22:00,
2013-10-03 22:44:00,54.0,53.0,29.98,NE,34,1.0,5.0,96,0.00,,,0.61,,2013-10-04 03:44:00,
2013-10-03 23:00:00,54.0,53.0,29.98,NE,53,0.0,4.0,96,0.00,,,0.61,,2013-10-04 04:00:00,